Location: *
(37.5724°S, 58.0067°E)
Time: 00:58:32
(UTC+00:00)

Cosmos 1980 - Pass Details

Date: 28 January 2021
Orbit: 840 x 846 km, 71.0° (Epoch: 06 March)

Event Time Altitude Azimuth Distance (km) Brightness Sun altitude
Rises 20:24:58 0° 188° (S) 3,441 7.9 -34.5°
Reaches altitude 10° 20:28:15 10° 170° (S) 2,498 6.9 -34.4°
Maximum altitude 20:32:09 18° 127° (SE) 1,962 5.9 -34.4°
Enters shadow 20:33:45 17° 106° (ESE) 2,059 5.8 -34.4°
